Regional Weather Roundup
Issued by NWS

Home | Current Version | Previous Version | Text Only | Print | Product List | Glossary Off
Versions: 1 2 3 4 5 6 7 8 9 10 11 12 13 14 15 16 17 18 19 20 21 22 23 24 25 26 27 28 29 30 31 32 33 34 35 36 37 38 39 40 41 42 43 44 45 46 47 48 49 50

521
ASUS43 KLMK 120710
RWRKY
KENTUCKY REGIONAL WEATHER ROUNDUP
NATIONAL WEATHER SERVICE LOUISVILLE KY
200 AM EST FRI FEB 12 2016

NOTE "FAIR" INDICATES FEW OR NO CLOUDS BELOW 12,000 FEET
WITH NO SIGNIFICANT WEATHER AND/OR OBSTRUCTIONS TO VISIBILITY.

KYZ001>023-026-027-061>063-070>075-120800-
WESTERN AND SOUTH CENTRAL KENTUCKY

CITY           SKY/WX    TMP DP  RH WIND       PRES   REMARKS
PADUCAH        CLOUDY    31  18  58 N5        30.24R WCI  26
HENDERSON      CLOUDY    28  14  54 NE7       30.23F WCI  21
OWENSBORO      CLOUDY    28  16  61 NE3       30.23F
HOPKINSVILLE   CLOUDY    31  17  58 E7        30.16F WCI  24
BOWLING GREEN  CLOUDY    31  17  56 E6        30.21F WCI  25
GLASGOW        PTCLDY    29  19  68 NE5       30.20F WCI  24
$$

KYZ024-025-028>034-038-045-046-053-120800-
NORTH CENTRAL KENTUCKY

CITY           SKY/WX    TMP DP  RH WIND       PRES   REMARKS
LOUISVILLE/SDF CLOUDY    27   9  46 E6        30.24F WCI  20
LOUISVILLE/LOU CLOUDY    26  11  52 CALM      30.25F
FORT KNOX      MOCLDY    25  12  56 NE5       30.19F WCI  19
$$

KYZ035>037-039>044-047>052-055>060-089>105-120800-
NORTHEAST KENTUCKY

CITY           SKY/WX    TMP DP  RH WIND       PRES   REMARKS
LEXINGTON      CLOUDY    24  13  62 E5        30.22F WCI  18
COVINGTON      PTCLDY    19   7  59 SE3       30.23F
FRANKFORT      CLOUDY    24  11  57 E3        30.22F
$$

KYZ054-064>069-076>088-106>120-120800-
SOUTHEAST KENTUCKY

CITY           SKY/WX    TMP DP  RH WIND       PRES   REMARKS
JACKSON        CLEAR     21   6  52 CALM      30.20F
LONDON         MOCLDY    25  11  55 NE3       30.19F
SOMERSET       CLOUDY    27  14  59 CALM      30.23F
MIDDLESBORO    CLOUDY    27  23  82 NW3       30.20F
MONTICELLO     CLOUDY    28  17  63 VRB6      30.23F WCI  22
$$





USA.gov is the U.S. government's official web portal to all federal, state and local government web resources and services.